This is the latest recevied weather packets stored in our database for station/object K3TLB-13. If no packets are shown the sender has not sent any weather packets the latest 10 day(s).
| Time | Temp. | Humidity | Pressure | Rain* | Wind** | Luminosity | Snow |
|---|---|---|---|---|---|---|---|
| 1777513512 | 12.78° C | 90% | 1008.1 hPa | 4.06 mm | - | - | - |
| 1777513460 | 12.78° C | 90% | 1008.1 hPa | 4.06 mm | - | - | - |
| 1777513160 | 12.78° C | 90% | 1008.5 hPa | 4.32 mm | - | - | - |
| 1777512860 | 12.78° C | 90% | 1008.4 hPa | 4.32 mm | - | - | - |
| 1777512560 | 12.78° C | 90% | 1008.5 hPa | 4.32 mm | - | - | - |
| 1777512306 | 12.78° C | 90% | 1008.6 hPa | 4.57 mm | - | - | - |
| 1777512260 | 12.78° C | 90% | 1008.6 hPa | 4.57 mm | - | - | - |
| 1777511960 | 12.78° C | 90% | 1008.7 hPa | 4.06 mm | - | - | - |
| 1777511705 | 12.78° C | 90% | 1008.5 hPa | 4.57 mm | - | - | - |
| 1777511660 | 12.78° C | 90% | 1008.5 hPa | 4.57 mm | - | - | - |
| 1777511416 | 12.78° C | 90% | 1008.4 hPa | 4.57 mm | - | - | - |
| 1777511362 | 12.78° C | 90% | 1008.4 hPa | 4.57 mm | - | - | - |
| 1777511060 | 12.78° C | 90% | 1007.8 hPa | 4.57 mm | - | - | - |
| 1777510760 | 12.78° C | 90% | 1007.6 hPa | 4.83 mm | - | - | - |
| 1777510460 | 12.78° C | 90% | 1007.6 hPa | 5.08 mm | - | - | - |
| 1777510161 | 12.78° C | 90% | 1007.5 hPa | 4.83 mm | - | - | - |
| 1777509860 | 12.78° C | 90% | 1007.5 hPa | 4.06 mm | - | - | - |
| 1777509560 | 12.78° C | 90% | 1007.4 hPa | 4.06 mm | - | - | - |
| 1777509260 | 12.78° C | 90% | 1007.3 hPa | 4.06 mm | - | - | - |
| 1777508961 | 12.78° C | 90% | 1007.2 hPa | 3.56 mm | - | - | - |
| 1777508660 | 12.78° C | 90% | 1007.1 hPa | 2.79 mm | - | - | - |
| 1777508401 | 12.78° C | 90% | 1007.1 hPa | 2.03 mm | - | - | - |
| 1777508362 | 12.78° C | 90% | 1007.1 hPa | 2.03 mm | - | - | - |
| 1777508060 | 12.78° C | 89% | 1007.2 hPa | 1.78 mm | - | - | - |
| 1777507763 | 12.78° C | 89% | 1006.9 hPa | 1.78 mm | - | - | - |
* Rain latest hour (hover to see other rain measurements)
** Current wind speed in m/s (hover to see current wind gust speed)